This is the latest recevied weather packets stored in our database for station/object IZ1UQG-N2. If no packets are shown the sender has not sent any weather packets the latest 10 day(s).
| Time | Temp. | Humidity | Pressure | Rain* | Wind** | Luminosity | Snow |
|---|---|---|---|---|---|---|---|
| 1777623266 | 14.44° C | 50% | 1026.5 hPa | 0 mm | - | 236 W/m² | - |
| 1777623248 | 14.44° C | 50% | 1026.5 hPa | 0 mm | - | 236 W/m² | - |
| 1777623208 | 14.44° C | 50% | 1026.5 hPa | 0 mm | - | 232 W/m² | - |
| 1777623148 | 14.44° C | 49% | 1026.5 hPa | 0 mm | - | 223 W/m² | - |
| 1777623088 | 14.44° C | 49% | 1026.5 hPa | 0 mm | - | 221 W/m² | - |
| 1777623067 | 14.44° C | 49% | 1026.5 hPa | 0 mm | - | 221 W/m² | - |
| 1777623027 | 14.44° C | 51% | 1026.5 hPa | 0 mm | - | 218 W/m² | - |
| 1777622967 | 14.44° C | 51% | 1026.5 hPa | 0 mm | - | 216 W/m² | - |
| 1777622907 | 14.44° C | 53% | 1026.5 hPa | 0 mm | - | 213 W/m² | - |
| 1777622888 | 14.44° C | 57% | 1026.5 hPa | 0 mm | - | 209 W/m² | - |
| 1777622848 | 14.44° C | 57% | 1026.5 hPa | 0 mm | - | 209 W/m² | - |
| 1777622788 | 14.44° C | 57% | 1026.5 hPa | 0 mm | - | 202 W/m² | - |
| 1777622728 | 14.44° C | 56% | 1026.5 hPa | 0 mm | - | 200 W/m² | - |
| 1777622707 | 14.44° C | 57% | 1026.5 hPa | 0 mm | - | 197 W/m² | - |
| 1777622667 | 14.44° C | 57% | 1026.5 hPa | 0 mm | - | 197 W/m² | - |
| 1777622619 | 13.89° C | 57% | 1026.5 hPa | 0 mm | - | 181 W/m² | - |
| 1777622607 | 14.44° C | 57% | 1026.5 hPa | 0 mm | - | 195 W/m² | - |
| 1777622547 | 13.89° C | 58% | 1026.5 hPa | 0 mm | - | 192 W/m² | - |
| 1777622527 | 13.89° C | 58% | 1026.5 hPa | 0 mm | - | 192 W/m² | - |
| 1777622499 | 13.89° C | 56% | 1026.4 hPa | 0 mm | - | 178 W/m² | - |
| 1777622487 | 13.89° C | 57% | 1026.5 hPa | 0 mm | - | 190 W/m² | - |
| 1777622439 | 13.89° C | 56% | 1026.4 hPa | 0 mm | - | 174 W/m² | - |
| 1777622427 | 13.89° C | 57% | 1026.5 hPa | 0 mm | - | 185 W/m² | - |
| 1777622419 | 13.89° C | 56% | 1026.4 hPa | 0 mm | - | 174 W/m² | - |
| 1777622379 | 13.89° C | 56% | 1026.4 hPa | 0 mm | - | 172 W/m² | - |
* Rain latest hour (hover to see other rain measurements)
** Current wind speed in m/s (hover to see current wind gust speed)